{"data":{"norad_id":59246,"epoch":"2026-09-19T08:06:55.557792Z","epoch_age_seconds":259190,"freshness":"STALE","line1":"1 59246U 24049R   26262.33814303  .00000081  00000+0  12479-4 0  9993","line2":"2 59246  43.0041 129.7775 0001047 277.2006  82.8727 15.27576639142017","mean_motion":15.27576639,"eccentricity":0.0001047,"inclination_deg":43.0041,"raan_deg":129.7775,"arg_perigee_deg":277.2006,"mean_anomaly_deg":82.8727,"bstar":1.2479e-5,"rev_number":14201,"period_min":94.266956120949,"perigee_km":482.34079286326,"apogee_km":483.77752733918,"semimajor_km":6861.1961601012,"source":"CELESTRAK","updated_at":"2026-09-21T09:00:34.077443Z"}}